Content
SEND FEEDBACK

Daily
Averages
Monthly
Summary
United States of America

FAYETTEVILLE, TENNESSEE


Home > North America > United States > Tennessee
Elevation: 700 feet     Latitude: 35 10N     Longitude: 086 33W

WEATHER
 
SELECT A DAY
Number of Records: 298,249;   Date Range: 4/22/02 - 8/28/14
 
SHARE

PRINT THIS DATA

[ ← Previous Day ]
WEATHER ALMANAC - OCTOBER 16, 2013
[ Next Day → ]
[ °C ]   °F
Weather ElementAverageHighLow
Temperature64.2 °F68 °F (1:15 pm)60.8 °F (9:55 am)
Dewpoint59.4 °F64.4 °F (5:15 pm)55.4 °F (12:35 am)
Humidity84.7 %100 % (5:15 pm)68 % (1:35 pm)
Barometer29.99 in30.06 in (8:35 am)29.93 in (4:55 pm)
Wind Speed3.7 mph10.4 mph (5:35 pm)
Wind Gust17.3 mph (6:35 pm)
Weather ElementAverage
Visibility8.1 mi
Wind DirectionESE (119 °)

Weather ElementTotal
Precipitation0.36 in
Heating Degree Days0.6 (Base 65)
Growing Degree Days14.4 (Base 50)
Averaged from 71 records on October 16, 2013
WEATHER CONDITIONS BREAKOUT
WIND DIRECTION BREAKOUT
WEATHER BY HOUR - OCTOBER 16, 2013
[ °C ]   °F
Local TimeTemperatureDewpointHumidityBarometerVisibilityWind DirectionWind SpeedGust SpeedPrecipitationEventsConditions
12:35 AM62.6 °F55.4 °F77 %30.03 in10.0 miSSE (150°)6.9 mphScattered Clouds
12:55 AM62.6 °F55.4 °F77 %30.02 in10.0 miSSE (150°)5.8 mphClear
1:15 AM62.6 °F55.4 °F77 %30.02 in10.0 miSSE (150°)5.8 mphClear
1:35 AM62.6 °F55.4 °F77 %30.02 in10.0 miCalmClear
1:55 AM62.6 °F55.4 °F77 %30.02 in10.0 miSE (130°)3.5 mphClear
2:15 AM62.6 °F55.4 °F77 %30.01 in10.0 miSE (130°)3.5 mphClear
2:35 AM62.6 °F55.4 °F77 %30.01 in10.0 miCalmDrizzle
2:55 AM62.6 °F55.4 °F77 %30.01 in10.0 miSSE (150°)3.5 mphMostly Cloudy
3:15 AM62.6 °F55.4 °F77 %30.01 in10.0 miSE (140°)5.8 mphMostly Cloudy
3:35 AM62.6 °F55.4 °F77 %30.01 in10.0 miCalmScattered Clouds
3:55 AM62.6 °F55.4 °F77 %30.01 in10.0 miCalmScattered Clouds
4:15 AM62.6 °F55.4 °F77 %30.01 in10.0 miSE (140°)3.5 mphMostly Cloudy
4:35 AM62.6 °F55.4 °F77 %30.01 in10.0 miSE (130°)4.6 mphOvercast
4:55 AM62.6 °F55.4 °F77 %30.01 in10.0 miSE (140°)3.5 mphOvercast
5:15 AM62.6 °F55.4 °F77 %30.01 in10.0 miCalmMostly Cloudy
5:35 AM62.6 °F55.4 °F77 %30.01 in10.0 miSE (140°)4.6 mphScattered Clouds
5:55 AM62.6 °F55.4 °F77 %30.02 in10.0 miSE (130°)3.5 mphScattered Clouds
6:15 AM62.6 °F55.4 °F77 %30.02 in10.0 miCalmMostly Cloudy
6:35 AM62.6 °F55.4 °F77 %30.03 in10.0 miCalmMostly Cloudy
6:55 AM62.6 °F55.4 °F77 %30.03 in10.0 miCalmScattered Clouds
7:15 AM62.6 °F55.4 °F77 %30.04 in10.0 miSouth (170°)3.5 mphMostly Cloudy
7:35 AM62.6 °F55.4 °F77 %30.04 in10.0 miCalmRainRain
7:55 AM62.6 °F55.4 °F77 %30.05 in10.0 miCalmRainRain
8:15 AM62.6 °F55.4 °F77 %30.05 in10.0 miCalmOvercast
8:35 AM62.6 °F55.4 °F77 %30.06 in10.0 miCalmOvercast
8:55 AM62.6 °F57.2 °F82 %30.06 in10.0 miCalmRainLight Rain
9:15 AM62.6 °F57.2 °F82 %30.06 in5.0 miCalmRainRain
9:35 AM62.6 °F59.0 °F88 %30.06 in3.0 miSE (130°)3.5 mphRainHeavy Rain
9:55 AM60.8 °F59.0 °F94 %30.05 in7.0 miSE (140°)3.5 mphRainLight Rain
10:15 AM62.6 °F59.0 °F88 %30.05 in7.0 miSE (140°)3.5 mphScattered Clouds
10:35 AM62.6 °F59.0 °F88 %30.04 in7.0 miSE (130°)3.5 mphLight Drizzle
10:55 AM62.6 °F59.0 °F88 %30.04 in10.0 miSE (130°)3.5 mphScattered Clouds
11:15 AM64.4 °F57.2 °F77 %30.03 in10.0 miSSE (150°)3.5 mphScattered Clouds
11:35 AM66.2 °F57.2 °F73 %30.03 in10.0 miSouth (170°)5.8 mphScattered Clouds
11:55 AM66.2 °F57.2 °F73 %30.03 in10.0 miSSE (160°)5.8 mphScattered Clouds
12:15 PM66.2 °F57.2 °F73 %30.02 in10.0 miSSE (150°)3.5 mphMostly Cloudy
12:35 PM66.2 °F57.2 °F73 %30.02 in10.0 miCalmDrizzle
12:55 PM66.2 °F57.2 °F73 %30.01 in10.0 miSE (140°)3.5 mphDrizzle
1:15 PM68.0 °F59.0 °F73 %29.99 in10.0 miSSE (150°)3.5 mphRainLight Rain
1:35 PM68.0 °F57.2 °F68 %29.98 in10.0 miSE (130°)4.6 mphScattered Clouds
1:55 PM68.0 °F57.2 °F68 %29.98 in10.0 miSE (140°)4.6 mphMostly Cloudy
2:15 PM66.2 °F59.0 °F78 %29.97 in7.0 miCalmDrizzle
2:35 PM66.2 °F60.8 °F83 %29.96 in7.0 miSSE (150°)3.5 mphDrizzle
2:55 PM66.2 °F60.8 °F83 %29.96 in3.0 miCalm0.01 inRainRain
3:15 PM64.4 °F60.8 °F88 %29.96 in3.0 miSE (130°)3.5 mph0.02 inRainRain
3:35 PM64.4 °F62.6 °F94 %29.95 in2.5 miSSE (150°)3.5 mph0.04 inRainHeavy Rain
3:55 PM64.4 °F62.6 °F94 %29.95 in2.5 miSSE (150°)5.8 mph0.08 inRainRain
4:15 PM64.4 °F62.6 °F94 %29.94 in5.0 miSE (130°)4.6 mph0.02 inRainLight Rain
4:35 PM64.4 °F62.6 °F94 %29.94 in2.5 miSE (140°)5.8 mph0.04 inRainLight Rain
4:55 PM64.4 °F62.6 °F94 %29.93 in4.0 miSSE (160°)6.9 mph0.04 inRainRain
5:15 PM64.4 °F64.4 °F100 %29.93 in4.0 miSouth (180°)8.1 mphDrizzle
5:35 PM66.2 °F64.4 °F94 %29.93 in7.0 miSouth (180°)10.4 mphRainLight Rain
5:55 PM66.2 °F64.4 °F94 %29.93 in10.0 miSouth (180°)6.9 mph16.1 mphLight Drizzle
6:15 PM66.2 °F64.4 °F94 %29.94 in7.0 miSouth (190°)8.1 mphLight Drizzle
6:35 PM66.2 °F64.4 °F94 %29.94 in10.0 miSouth (190°)10.4 mph17.3 mphRainRain
6:55 PM66.2 °F64.4 °F94 %29.94 in7.0 miSouth (190°)6.9 mphRainRain
7:15 PM66.2 °F64.4 °F94 %29.94 in7.0 miSSW (200°)9.2 mph0.01 inRainLight Rain
7:35 PM66.2 °F64.4 °F94 %29.95 in7.0 miSouth (190°)8.1 mph0.02 inRainLight Rain
7:55 PM66.2 °F64.4 °F94 %29.96 in7.0 miSSW (200°)8.1 mph0.02 inRainRain
8:15 PM66.2 °F64.4 °F94 %29.96 in10.0 miSSW (200°)6.9 mphOvercast
8:35 PM66.2 °F64.4 °F94 %29.96 in7.0 miSouth (190°)5.8 mphOvercast
8:55 PM66.2 °F64.4 °F94 %29.96 in4.0 miSW (230°)4.6 mphHeavy Drizzle
9:15 PM64.4 °F64.4 °F100 %29.96 in3.0 miSSW (210°)5.8 mph0.02 inRainHeavy Rain
9:35 PM64.4 °F64.4 °F100 %29.96 in5.0 miCalm0.02 inLight Drizzle
9:55 PM64.4 °F64.4 °F100 %29.96 in7.0 miSSW (200°)5.8 mph0.02 inOvercast
10:15 PM64.4 °F64.4 °F100 %29.96 in7.0 miSW (220°)3.5 mphOvercast
10:35 PM64.4 °F64.4 °F100 %29.96 in10.0 miWSW (240°)3.5 mphOvercast
10:55 PM64.4 °F64.4 °F100 %29.96 in7.0 miCalmOvercast
11:15 PM64.4 °F64.4 °F100 %29.95 in7.0 miCalmOvercast
11:35 PM64.4 °F64.4 °F100 %29.94 in10.0 miWest (260°)3.5 mphOvercast
11:55 PM64.4 °F62.6 °F94 %29.94 in10.0 miWest (280°)4.6 mphOvercast
Hourly data recorded from KMDQ, located miles away from Fayetteville, Tennessee







STORIES FROM OUR PARTNERS